This is the latest recevied weather packets stored in our database for station/object SP1BMW-13. If no packets are shown the sender has not sent any weather packets the latest 10 day(s).
| Time | Temp. | Humidity | Pressure | Rain* | Wind** | Luminosity | Snow |
|---|---|---|---|---|---|---|---|
| 1787729533 | 20.56° C | 63% | 1021.6 hPa | 0 mm | 1.34 m/s, 31° | 308 W/m² | - |
| 1787729473 | 20.56° C | 62% | 1021.6 hPa | 0 mm | 0.45 m/s, 47° | 306 W/m² | - |
| 1787729413 | 20.56° C | 62% | 1021.6 hPa | 0 mm | 1.34 m/s, 34° | 305 W/m² | - |
| 1787729353 | 20.56° C | 63% | 1021.6 hPa | 0 mm | 1.34 m/s, 45° | 302 W/m² | - |
| 1787729293 | 20.56° C | 65% | 1021.5 hPa | 0 mm | 0 m/s | 299 W/m² | - |
| 1787729233 | 20.56° C | 62% | 1021.5 hPa | 0 mm | 0.45 m/s, 54° | 296 W/m² | - |
| 1787729173 | 20.56° C | 63% | 1021.3 hPa | 0 mm | 0.45 m/s, 56° | 295 W/m² | - |
| 1787729113 | 20.56° C | 62% | 1021.5 hPa | 0 mm | 0.89 m/s, 24° | 292 W/m² | - |
| 1787729053 | 20.56° C | 63% | 1021.5 hPa | 0 mm | 0.45 m/s, 43° | 288 W/m² | - |
| 1787728993 | 20.56° C | 63% | 1021.6 hPa | 0 mm | 0.45 m/s, 45° | 286 W/m² | - |
| 1787728933 | 20.56° C | 62% | 1021.6 hPa | 0 mm | 0 m/s | 284 W/m² | - |
| 1787728873 | 20.56° C | 62% | 1021.6 hPa | 0 mm | 0.45 m/s, 32° | 281 W/m² | - |
| 1787728813 | 20.56° C | 62% | 1021.5 hPa | 0 mm | 0.89 m/s, 34° | 278 W/m² | - |
| 1787728753 | 20.56° C | 62% | 1021.7 hPa | 0 mm | 0.45 m/s, 57° | 275 W/m² | - |
| 1787728693 | 20.56° C | 63% | 1021.5 hPa | 0 mm | 0 m/s | 273 W/m² | - |
| 1787728633 | 20° C | 64% | 1021.6 hPa | 0 mm | 0 m/s | 270 W/m² | - |
| 1787728573 | 20° C | 64% | 1021.5 hPa | 0 mm | 0 m/s | 267 W/m² | - |
| 1787728513 | 20° C | 64% | 1021.4 hPa | 0 mm | 0 m/s | 263 W/m² | - |
| 1787728453 | 20° C | 65% | 1021.5 hPa | 0 mm | 0.45 m/s, 135° | 260 W/m² | - |
| 1787728393 | 19.44° C | 64% | 1021.5 hPa | 0 mm | 0.89 m/s, 158° | 258 W/m² | - |
| 1787728333 | 19.44° C | 66% | 1021.6 hPa | 0 mm | 0 m/s | 255 W/m² | - |
| 1787728273 | 19.44° C | 66% | 1021.5 hPa | 0 mm | 0.45 m/s, 49° | 253 W/m² | - |
| 1787728213 | 19.44° C | 66% | 1021.6 hPa | 0 mm | 0.89 m/s, 110° | 251 W/m² | - |
| 1787728153 | 19.44° C | 66% | 1021.5 hPa | 0 mm | 0.45 m/s, 46° | 248 W/m² | - |
| 1787728093 | 19.44° C | 65% | 1021.5 hPa | 0 mm | 0.45 m/s, 49° | 245 W/m² | - |
* Rain latest hour (hover to see other rain measurements)
** Current wind speed in m/s (hover to see current wind gust speed)